Waco, TX

1:40 PM CDT on October 23, 2019 (GMT -0500)
Waco Regional

Weather History for KACT - September, 2019

Change the Weather History Date:

Sunday, September 15, 2019

  Actual Average Record
Temperature  
Mean Temperature 84 °F 78 °F  
Max Temperature 99 °F 90 °F 100 °F (1911)
Min Temperature 69 °F 67 °F 49 °F (1989)
Degree Days  
Heating Degree Days 0 0  
Month to date heating degree days 0 0  
Since 1 July heating degree days 0 0  
Cooling Degree Days 19 13  
Month to date cooling degree days 314 234  
Year to date cooling degree days 2555 2429  
Growing Degree Days 34 (Base 50)    
Moisture  
Dew Point 63 °F    
Average Humidity 57    
Maximum Humidity 84    
Minimum Humidity 29    
Precipitation  
Precipitation 0.00 in 0.10 in 1.80 in (1967)
Month to date precipitation 0.17 1.52  
Year to date precipitation 27.66 23.68  
Sea Level Pressure  
Sea Level Pressure 30.02 in    
Wind  
Wind Speed 4 mph (SE)    
Max Wind Speed 13 mph    
Max Gust Speed 18 mph    
Visibility 10 miles    
Events      
T = Trace of Precipitation, MM = Missing Value Source: NWS Daily Summary

Daily Weather History Graph

Daily Weather History Graph

Search for Another Location

Airport or City:

Astronomy

Sep. 15, 2019 Rise Set
Actual Time 7:12 AM CDT 7:34 PM CDT
Civil Twilight 6:48 AM CDT 7:59 PM CDT
Nautical Twilight 6:19 AM CDT 8:27 PM CDT
Astronomical Twilight 5:50 AM CDT 8:56 PM CDT
Moon 8:46 PM CDT (9/15) 8:22 AM CDT (9/15)
Length of Visible Light 13h 10m
Length of Day
12h 22m
Full, 98% of the Moon is Illuminated
Sep 15
Full
Sep 21
Last Quarter
Sep 28
New
Oct 5
First Quarter
Oct 13
Full

Hourly Weather History & Observations

Time (CDT) Temp. Heat Index Dew Point Humidity Pressure Visibility Wind Dir Wind Speed Gust Speed Precip Events Conditions
12:51 AM 77.0 °F - 62.1 °F 60% 30.05 in 10.0 mi Calm Calm - N/A   Clear
1:51 AM 75.0 °F - 63.0 °F 66% 30.06 in 10.0 mi Calm Calm - N/A   Clear
2:51 AM 73.0 °F - 62.1 °F 68% 30.05 in 10.0 mi Calm Calm - N/A   Clear
3:51 AM 73.9 °F - 64.9 °F 73% 30.04 in 10.0 mi SW 3.5 mph - N/A   Clear
4:51 AM 72.0 °F - 64.9 °F 78% 30.04 in 10.0 mi West 3.5 mph - N/A   Clear
5:51 AM 71.1 °F - 62.1 °F 73% 30.05 in 10.0 mi Calm Calm - N/A   Clear
6:51 AM 71.1 °F - 64.0 °F 78% 30.06 in 10.0 mi Calm Calm - N/A   Clear
7:51 AM 72.0 °F - 66.0 °F 81% 30.06 in 10.0 mi Calm Calm - N/A   Clear
8:51 AM 79.0 °F - 66.0 °F 64% 30.06 in 10.0 mi Calm Calm - N/A   Clear
9:51 AM 86.0 °F 87.6 °F 64.9 °F 49% 30.08 in 10.0 mi Variable 3.5 mph - N/A   Clear
10:51 AM 89.1 °F 90.0 °F 63.0 °F 42% 30.08 in 10.0 mi South 3.5 mph - N/A   Clear
11:51 AM 91.9 °F 92.9 °F 63.0 °F 38% 30.06 in 10.0 mi South 3.5 mph - N/A   Clear
12:51 PM 93.0 °F 94.2 °F 63.0 °F 37% 30.05 in 10.0 mi Variable 3.5 mph - N/A   Clear
1:51 PM 95.0 °F 95.6 °F 62.1 °F 33% 30.02 in 10.0 mi East 9.2 mph - N/A   Clear
2:51 PM 98.1 °F 98.1 °F 60.1 °F 28% 29.99 in 10.0 mi East 9.2 mph 16.1 mph N/A   Scattered Clouds
3:51 PM 98.1 °F 98.1 °F 60.1 °F 28% 29.96 in 10.0 mi Variable 5.8 mph - N/A   Scattered Clouds
4:51 PM 97.0 °F 96.9 °F 60.1 °F 29% 29.95 in 10.0 mi ESE 8.1 mph - N/A   Clear
5:51 PM 96.1 °F 96.0 °F 60.1 °F 30% 29.95 in 10.0 mi ESE 8.1 mph - N/A   Clear
6:51 PM 93.0 °F 93.8 °F 62.1 °F 36% 29.95 in 10.0 mi ESE 8.1 mph - N/A   Partly Cloudy
7:51 PM 89.1 °F 89.3 °F 62.1 °F 40% 29.96 in 10.0 mi ESE 6.9 mph - N/A   Clear
8:51 PM 84.9 °F 85.9 °F 63.0 °F 48% 29.97 in 10.0 mi East 4.6 mph - N/A   Clear
9:51 PM 82.0 °F 83.4 °F 64.0 °F 54% 29.99 in 10.0 mi SE 6.9 mph - N/A   Clear
10:51 PM 82.9 °F 84.4 °F 64.0 °F 53% 29.99 in 10.0 mi ESE 4.6 mph - N/A   Clear
11:51 PM 81.0 °F 82.7 °F 64.9 °F 58% 29.99 in 10.0 mi East 3.5 mph - N/A   Clear